Weather History for Kenai, AK

Change the Weather History Date:

Friday, November 26, 2010

  Actual Average Record
Temperature  
Mean Temperature 22 °F -  
Max Temperature 30 °F 26 °F 48 °F (2002)
Min Temperature 15 °F 11 °F -15 °F (1961)
Degree Days  
Heating Degree Days 42    
Moisture  
Dew Point 17 °F    
Average Humidity 83    
Maximum Humidity 88    
Minimum Humidity 74    
Precipitation  
Precipitation 0.00 in - - ()
Sea Level Pressure  
Sea Level Pressure 29.83 in    
Wind  
Wind Speed 2 mph (East)    
Max Wind Speed 5 mph    
Max Gust Speed -    
Visibility 7 miles    
Events      
Averages and records for this station are not official NWS values.
T = Trace of Precipitation, MM = Missing Value Source: NWS Daily Summary

Daily Weather History Graph

Daily Weather History Graph

Search for Another Location

Airport:

Trip Planner

Search our weather history database for the weather conditions in past years. The results will help you decide how hot, cold, wet, or windy it might be!

Date:

Astronomy

Nov. 26, 2010 Rise Set
Actual Time 9:34 AM AKST 4:09 PM AKST
Civil Twilight 8:40 AM AKST 5:04 PM AKST
Nautical Twilight 7:44 AM AKST 5:59 PM AKST
Astronomical Twilight 6:53 AM AKST 6:50 PM AKST
Moon 10:08 PM AKST (11/26) 1:17 PM AKST (11/26)
Length of Visible Light 8h 23m
Length of Day
6h 35m
Waning Gibbous, 72% of the Moon is Illuminated
Nov 26
Waning Gibbous
Nov 28
Last Quarter
Dec 5
New
Dec 13
First Quarter
Dec 20
Full

Hourly Weather History & Observations

Time (AKST) Temp. Windchill Dew Point Humidity Pressure Visibility Wind Dir Wind Speed Gust Speed Precip Events Conditions
12:02 AM 30.2 °F 26.7 °F 26.6 °F 86% 29.68 in 10.0 mi SE 3.5 mph - N/A   Overcast
12:17 AM 30.2 °F 26.7 °F 26.6 °F 86% 29.68 in 10.0 mi SE 3.5 mph - N/A   Overcast
12:53 AM 30.0 °F 26.5 °F 25.0 °F 82% 29.71 in 10.0 mi ESE 3.5 mph - N/A   Overcast
1:53 AM 28.0 °F 22.8 °F 23.0 °F 81% 29.73 in 10.0 mi East 4.6 mph - N/A   Overcast
2:53 AM 24.1 °F - 21.0 °F 88% 29.76 in 2.0 mi Calm Calm - N/A   Clear
3:00 AM 24.8 °F - 21.2 °F 86% 29.75 in 1.8 mi Calm Calm - N/A   Clear
3:03 AM 24.8 °F - 21.2 °F 86% 29.76 in 3.0 mi Calm Calm - N/A   Clear
3:53 AM 24.1 °F - 19.0 °F 81% 29.79 in 7.0 mi Calm Calm - N/A   Clear
4:02 AM 24.8 °F - 19.4 °F 80% 29.78 in 1.8 mi Calm Calm - N/A   Clear
4:21 AM 23.0 °F 18.4 °F 19.4 °F 86% 29.78 in 3.0 mi ENE 3.5 mph - N/A   Clear
4:36 AM 21.2 °F - 17.6 °F 86% 29.79 in 2.0 mi Calm Calm - N/A   Partly Cloudy
4:40 AM 21.2 °F - 17.6 °F 86% 29.79 in 1.0 mi Calm Calm - N/A   Haze
4:46 AM 21.2 °F - 17.6 °F 86% 29.80 in 0.8 mi Calm Calm - N/A   Scattered Clouds
4:53 AM 21.0 °F - 17.1 °F 85% 29.81 in 0.8 mi Calm Calm - N/A   Mostly Cloudy
4:58 AM 21.2 °F - 17.6 °F 86% 29.80 in 2.0 mi Calm Calm - N/A   Haze
5:06 AM 21.2 °F - 17.6 °F 86% 29.80 in 9.0 mi Calm Calm - N/A   Scattered Clouds
5:53 AM 19.9 °F - 16.0 °F 85% 29.83 in 10.0 mi Calm Calm - N/A   Clear
6:07 AM 19.4 °F - 15.8 °F 86% 29.82 in 1.8 mi Calm Calm - N/A   Clear
6:34 AM 19.4 °F - 12.2 °F 74% 29.82 in 3.0 mi Calm Calm - N/A   Haze
6:39 AM 19.4 °F - 14.0 °F 80% 29.83 in 1.8 mi Calm Calm - N/A   Haze
6:50 AM 19.4 °F - 14.0 °F 80% 29.84 in 1.0 mi Calm Calm - N/A   Haze
6:53 AM 19.0 °F - 14.0 °F 81% 29.85 in 4.0 mi Calm Calm - N/A   Haze
7:00 AM 19.4 °F - 14.0 °F 80% 29.84 in 5.0 mi Calm Calm - N/A   Haze
7:53 AM 18.0 °F - 12.0 °F 78% 29.86 in 5.0 mi Calm Calm - N/A   Haze
8:53 AM 15.1 °F - 10.0 °F 80% 29.87 in 10.0 mi Calm Calm - N/A   Clear
9:53 AM 17.1 °F - 12.0 °F 81% 29.88 in 10.0 mi Calm Calm - N/A   Clear
10:53 AM 19.0 °F - 12.9 °F 77% 29.88 in 10.0 mi Calm Calm - N/A   Clear
11:53 AM 21.9 °F - 16.0 °F 78% 29.90 in 10.0 mi Calm Calm - N/A   Clear
12:53 PM 25.0 °F 20.7 °F 19.0 °F 78% 29.90 in 10.0 mi East 3.5 mph - N/A   Clear
1:53 PM 23.0 °F - 19.0 °F 85% 29.91 in 10.0 mi Calm Calm - N/A   Clear
2:53 PM 25.0 °F - 19.9 °F 81% 29.92 in 10.0 mi Calm Calm - N/A   Clear
3:53 PM 25.0 °F 20.7 °F 19.9 °F 81% 29.91 in 10.0 mi East 3.5 mph - N/A   Clear
4:53 PM 24.1 °F 18.2 °F 19.9 °F 84% 29.91 in 10.0 mi East 4.6 mph - N/A   Scattered Clouds
5:53 PM 21.9 °F - 18.0 °F 85% 29.90 in 10.0 mi Calm Calm - N/A   Clear
6:53 PM 21.9 °F - 17.1 °F 82% 29.90 in 10.0 mi Calm Calm - N/A   Clear
7:53 PM 21.0 °F - 16.0 °F 81% 29.90 in 10.0 mi Calm Calm - N/A   Clear
8:53 PM 17.1 °F 11.7 °F 12.9 °F 84% 29.88 in 10.0 mi ENE 3.5 mph - N/A   Clear
9:53 PM 17.1 °F - 12.0 °F 81% 29.87 in 10.0 mi Calm Calm - N/A   Clear
10:53 PM 15.1 °F 9.4 °F 10.0 °F 80% 29.86 in 10.0 mi ENE 3.5 mph - N/A   Clear
11:53 PM 16.0 °F 10.4 °F 10.9 °F 81% 29.85 in 10.0 mi ENE 3.5 mph - N/A   Mostly Cloudy